This is the latest recevied weather packets stored in our database for station/object N6RDS. If no packets are shown the sender has not sent any weather packets the latest 10 day(s).
| Time | Temp. | Humidity | Pressure | Rain* | Wind** | Luminosity | Snow |
|---|---|---|---|---|---|---|---|
| 1777189521 | 6.11° C | 63% | 1016.4 hPa | 0 mm | - | 0 W/m² | - |
| 1777189214 | 6.11° C | 63% | 1016.2 hPa | 0 mm | - | 0 W/m² | - |
| 1777188910 | 6.67° C | 60% | 1016.4 hPa | 0 mm | - | 0 W/m² | - |
| 1777188608 | 6.11° C | 65% | 1016.8 hPa | 0 mm | - | 0 W/m² | - |
| 1777188302 | 5.56° C | 66% | 1017.4 hPa | 0 mm | - | 0 W/m² | - |
| 1777187998 | 5.56° C | 66% | 1016.8 hPa | 0 mm | - | 0 W/m² | - |
| 1777187694 | 5.56° C | 66% | 1016.8 hPa | 0 mm | - | 0 W/m² | - |
| 1777187389 | 5° C | 68% | 1016.7 hPa | 0 mm | - | 0 W/m² | - |
| 1777187084 | 5.56° C | 69% | 1016.7 hPa | 0 mm | - | 0 W/m² | - |
| 1777186779 | 5.56° C | 68% | 1016.8 hPa | 0 mm | - | 0 W/m² | - |
| 1777186476 | 5.56° C | 68% | 1017.2 hPa | 0 mm | - | 0 W/m² | - |
| 1777186171 | 5° C | 69% | 1017 hPa | 0 mm | - | 0 W/m² | - |
| 1777185866 | 5.56° C | 68% | 1017.2 hPa | 1.78 mm | - | 0 W/m² | - |
| 1777185563 | 5.56° C | 66% | 1017 hPa | 1.78 mm | - | 0 W/m² | - |
| 1777185259 | 6.11° C | 64% | 1017 hPa | 0 mm | - | 0 W/m² | - |
| 1777184954 | 6.11° C | 61% | 1017.4 hPa | 0 mm | - | 0 W/m² | - |
| 1777184649 | 5.56° C | 61% | 1017.3 hPa | 0 mm | - | 0 W/m² | - |
| 1777184344 | 5.56° C | 63% | 1017.2 hPa | 0 mm | - | 0 W/m² | - |
| 1777184040 | 5.56° C | 65% | 1017.2 hPa | 0 mm | - | 0 W/m² | - |
| 1777183735 | 5.56° C | 65% | 1017.5 hPa | 0 mm | - | 0 W/m² | - |
| 1777183432 | 5° C | 68% | 1017.5 hPa | 0 mm | - | 0 W/m² | - |
| 1777183131 | 5° C | 68% | 1017.5 hPa | 0 mm | - | 0 W/m² | - |
| 1777182827 | 5.56° C | 67% | 1017.5 hPa | 0 mm | - | 0 W/m² | - |
| 1777182524 | 5.56° C | 66% | 1017.8 hPa | 0 mm | - | 0 W/m² | - |
| 1777182219 | 5.56° C | 68% | 1017.5 hPa | 0 mm | - | 0 W/m² | - |
* Rain latest hour (hover to see other rain measurements)
** Current wind speed in m/s (hover to see current wind gust speed)